Weather in Boyanets

Ukraine / Lviv District     50°09′47″N   24°06′08″E
temp.,
°C
wind,
m/s
gust,
m/s
humid.,
%
clouds,
%
prec.,
mm/h
press.,
hPa
HPBL,
m
4 march, thu
thu423:00+3sw34870 0.0 102364
02:00+3wsw412880 0.0 1021266
05:00+4wsw614890 0.0 1018338
08:00+4wsw6148617 0.0 1016407
11:00+9w8136576 0.0 1015817
14:00+11w9136167 0.0 10131486
17:00+8nw6106994 0.0 1012965
20:00+4wnw398364 0.0 1013270
5 march, fri
fri523:00+4w3685100 0.1 1012364
02:00+3wnw359298 0.1 1012271
05:00+2nnw3693100 0.2 1012371
08:000n4698100 2.0 1013292
11:000nne5791100 1.4 1015597
14:00+2nne5765100 1.6 10171183
17:00+1nne4759100 0.0 10191175
20:00−1n3672100 0.0 1022177
6 march, sat
sat623:00−2nw356945 0.0 1024126
02:00−2nw357123 0.0 1026132
05:00−2wnw377410 0.0 1026262
08:00−2nw59745 0.0 1028608
11:000nw795011 0.0 10291640
14:00+1nw683411 0.0 10301701
17:00+1nw574411 0.0 10301674
20:00−2w356435 0.0 1030115
7 march, sun
sun723:00−2wsw49660 0.0 1030257
02:00−2wsw612650 0.0 1028464
05:00−2wsw714630 0.0 1026577
08:00−1wsw815594 0.0 1024813
11:00+3w10144712 0.0 10221300
14:00+5w10154626 0.0 10211523
17:00+4w8145417 0.0 10181415
20:00+1w6156524 0.0 1018497
8 march, mon
mon823:000w5117380 0.0 1018417
02:00−1w497885 0.0 1017349
05:00−2w5108477 0.0 1016357
08:00−1w5108156 0.0 1016607
11:00+2w687098 0.0 1016862
14:00+2wnw688499 0.3 1016708
17:00+1nw588396 0.6 1016737
20:00−2nw367273 0.7 1018124